CZ-8A R/B

Last updated on Sun Jun 21 2026 00:02:16 GMT+0000 (Coordinated Universal Time)

1 66004U 25231K 26171.33611209 -.00000031 00000+0 47222-4 0 9996 2 66004 50.0053 25.9191 0116482 235.0958 123.8966 14.30155599 35399
UTC large
Height (km)
Speed (km/s)
/
Latitude / Longitude
Inclination (degrees)
Orbital Period (minutes)
Azimuth
Elevation
Range (km)
Doppler Factor

Next 0 passes for location: London (51.5072 / 0.1276)

No passes found over London.
CZ-8A R/B